Glens Falls, NY

8:42 AM EST on December 14, 2019 (GMT -0500)
Bennett Memorial

Weather History for KGFL - October, 2019

Change the Weather History Date:

Friday, October 11, 2019

  Actual Average Record
Temperature  
Mean Temperature 51 °F 48 °F  
Max Temperature 65 °F 60 °F 85 °F (1949)
Min Temperature 36 °F 36 °F 21 °F (1993)
Degree Days  
Heating Degree Days 14 17  
Month to date heating degree days 149 164  
Since 1 July heating degree days 371 449  
Cooling Degree Days 0 0  
Month to date cooling degree days 0 0  
Year to date cooling degree days 416 351  
Moisture  
Dew Point 39 °F    
Average Humidity 61    
Maximum Humidity 96    
Minimum Humidity 26    
Precipitation  
Precipitation 0.00 in 0.11 in 0.98 in (1908)
Month to date precipitation 1.42 1.27  
Year to date precipitation 32.27 30.46  
Sea Level Pressure  
Sea Level Pressure 30.24 in    
Wind  
Wind Speed 5 mph (NNE)    
Max Wind Speed 15 mph    
Max Gust Speed 19 mph    
Visibility 9 miles    
Events      
T = Trace of Precipitation, MM = Missing Value Source: NWS Daily Summary

Daily Weather History Graph

Daily Weather History Graph

Search for Another Location

Airport or City:

Astronomy

Oct. 11, 2019 Rise Set
Actual Time 7:03 AM EDT 6:18 PM EDT
Civil Twilight 6:34 AM EDT 6:47 PM EDT
Nautical Twilight 6:01 AM EDT 7:20 PM EDT
Astronomical Twilight 5:28 AM EDT 7:53 PM EDT
Moon 5:51 PM EDT (10/11) 4:34 AM EDT (10/11)
Length of Visible Light 12h 12m
Length of Day
11h 15m
Waxing Gibbous, 96% of the Moon is Illuminated
Oct 11
Waxing Gibbous
Oct 13
Full
Oct 21
Last Quarter
Oct 27
New
Nov 4
First Quarter

Hourly Weather History & Observations

Time (EDT) Temp. Windchill Dew Point Humidity Pressure Visibility Wind Dir Wind Speed Gust Speed Precip Events Conditions
12:53 AM 45.0 °F - 41.0 °F 86% 30.31 in 10.0 mi Calm Calm - N/A   Clear
1:53 AM 43.0 °F - 41.0 °F 93% 30.30 in 10.0 mi Calm Calm - N/A   Clear
2:53 AM 41.0 °F - 37.0 °F 86% 30.28 in 10.0 mi Calm Calm - N/A   Clear
3:09 AM 39.0 °F - 37.0 °F 93% 30.27 in 1.8 mi Calm Calm - N/A   Clear
3:25 AM 39.9 °F - 39.9 °F 100% 30.27 in 3.0 mi Calm Calm - N/A   Clear
3:29 AM 39.0 °F - 39.0 °F 100% 30.27 in 1.5 mi Calm Calm - N/A   Clear
3:39 AM 37.9 °F 35.5 °F 37.9 °F 100% 30.27 in 4.0 mi North 3.5 mph - N/A   Clear
3:53 AM 39.9 °F - 37.0 °F 89% 30.29 in 10.0 mi Calm Calm - N/A   Clear
4:53 AM 45.0 °F 41.8 °F 41.0 °F 86% 30.28 in 10.0 mi North 5.8 mph - N/A   Clear
5:53 AM 41.0 °F 38.0 °F 39.0 °F 93% 30.29 in 10.0 mi North 4.6 mph - N/A   Clear
6:53 AM 43.0 °F 39.5 °F 39.0 °F 86% 30.30 in 10.0 mi North 5.8 mph - N/A   Clear
7:53 AM 46.0 °F 41.9 °F 39.0 °F 76% 30.30 in 10.0 mi North 8.1 mph - N/A   Clear
8:53 AM 50.0 °F - 41.0 °F 71% 30.30 in 10.0 mi North 11.5 mph - N/A   Clear
9:53 AM 54.0 °F - 39.9 °F 59% 30.28 in 10.0 mi North 10.4 mph - N/A   Clear
10:53 AM 57.9 °F - 42.1 °F 56% 30.27 in 10.0 mi NE 4.6 mph - N/A   Clear
11:53 AM 63.0 °F - 37.0 °F 38% 30.25 in 10.0 mi NE 10.4 mph - N/A   Clear
12:53 PM 64.0 °F - 28.9 °F 27% 30.22 in 10.0 mi NE 11.5 mph - N/A   Overcast
1:53 PM 64.0 °F - 30.9 °F 29% 30.21 in 10.0 mi NNE 10.4 mph - N/A   Overcast
2:53 PM 64.0 °F - 33.1 °F 31% 30.20 in 10.0 mi NNE 9.2 mph - N/A   Overcast
3:53 PM 64.9 °F - 32.0 °F 29% 30.18 in 10.0 mi NNE 11.5 mph - N/A   Overcast
4:53 PM 64.0 °F - 34.0 °F 33% 30.17 in 10.0 mi NE 6.9 mph - N/A   Overcast
5:53 PM 62.1 °F - 36.0 °F 38% 30.17 in 10.0 mi NNE 3.5 mph - N/A   Overcast
6:53 PM 55.9 °F - 43.0 °F 62% 30.17 in 10.0 mi Calm Calm - N/A   Overcast
8:53 PM 54.0 °F - 45.0 °F 72% 30.15 in 10.0 mi Calm Calm - N/A   Overcast
9:53 PM 54.0 °F - 46.0 °F 75% 30.13 in 10.0 mi Calm Calm - N/A   Overcast
10:53 PM 53.1 °F - 45.0 °F 74% 30.12 in 10.0 mi Calm Calm - N/A   Overcast
11:53 PM 52.0 °F - 45.0 °F 77% 30.10 in 10.0 mi Calm Calm - N/A   Mostly Cloudy